EDT,Max TemperatureF,Mean TemperatureF,Min TemperatureF,Max Dew PointF,MeanDew PointF,Min DewpointF,Max Humidity, Mean Humidity, Min Humidity, Max Sea Level PressureIn, Mean Sea Level PressureIn, Min Sea Level PressureIn, Max VisibilityMiles, Mean VisibilityMiles, Min VisibilityMiles, Max Wind SpeedMPH, Mean Wind SpeedMPH, Max Gust SpeedMPH,PrecipitationIn, CloudCover, Events, WindDirDegrees
2013-9-1,68,60,52,66,62,51,100,95,88,29.84,29.75,29.67,10,6,0,18,8,29,0.32,7,Fog-Rain,195
2013-9-2,54,52,50,51,49,47,97,89,78,29.93,29.85,29.78,10,8,2,17,11,26,0.00,8,Rain,306
2013-9-3,70,59,48,57,52,48,98,76,45,29.98,29.94,29.88,10,10,10,12,8,17,0.00,1,,268
2013-9-4,62,54,46,56,47,40,92,73,53,30.16,30.04,29.87,10,10,10,13,9,20,0.00,2,,320
2013-9-5,65,55,45,49,44,40,92,69,43,30.32,30.24,30.16,10,10,10,9,4,,0.00,0,,298
2013-9-6,70,60,51,61,55,48,96,84,60,30.20,30.09,29.94,10,10,4,20,10,24,0.20,3,Rain,212
2013-9-7,74,66,56,69,63,55,99,93,84,30.07,29.92,29.85,10,8,2,10,6,16,0.42,6,Rain,324
2013-9-8,67,56,46,54,50,47,99,80,55,30.19,30.12,30.04,10,10,7,9,3,,0.00,0,,144
2013-9-9,65,57,49,63,58,48,99,93,83,30.04,29.90,29.71,10,9,2,13,6,20,0.00,6,Rain,167
2013-9-10,81,72,63,71,66,63,100,91,66,29.91,29.81,29.72,10,7,0,16,6,23,0.07,7,Fog-Rain,221
2013-9-11,75,68,59,66,63,59,100,90,66,29.95,29.91,29.88,10,8,0,9,4,,0.20,6,Fog-Rain,232
2013-9-12,59,52,46,59,50,42,99,85,61,30.10,29.99,29.90,10,9,3,17,8,28,0.01,6,Rain,318
2013-9-13,53,45,37,45,38,35,98,76,55,30.20,30.16,30.11,10,10,7,15,7,22,0.01,4,,345
2013-9-14,65,50,34,53,44,35,100,79,51,30.13,30.05,29.95,10,10,10,18,6,25,0.00,0,,217
2013-9-15,58,50,42,55,50,38,97,88,77,30.24,30.04,29.93,10,10,3,14,8,22,0.07,7,Rain,275
2013-9-16,57,45,33,39,36,32,95,73,47,30.43,30.37,30.25,10,10,10,8,4,,0.00,1,,3
2013-9-17,61,48,35,49,43,35,99,81,58,30.38,30.30,30.16,10,10,10,15,5,18,0.00,1,,180
2013-9-18,63,54,44,57,53,44,100,88,74,30.15,30.02,29.93,10,9,0,14,6,22,0.00,6,Fog-Rain,173
2013-9-19,71,66,61,65,63,57,98,89,77,29.93,29.85,29.73,10,9,4,15,8,22,0.00,7,Rain,181
2013-9-20,68,61,53,66,61,52,99,95,87,29.73,29.67,29.62,10,8,1,15,10,24,0.43,8,Rain,240
2013-9-21,53,47,41,51,44,39,97,88,71,29.91,29.79,29.72,10,10,3,18,7,30,0.02,7,Rain,306
2013-9-22,51,42,34,40,38,34,98,82,58,30.11,30.04,29.91,10,10,5,12,4,18,0.00,5,Rain,330
2013-9-23,57,44,32,45,39,32,99,83,59,30.19,30.15,30.11,10,10,10,12,3,18,0.00,4,,155
2013-9-24,63,50,38,52,45,38,100,84,55,30.15,30.10,30.03,10,8,0,8,4,,0.00,1,Fog,161
2013-9-25,68,52,35,53,45,36,100,85,55,30.07,30.04,30.01,10,8,0,8,1,,0.00,1,Fog,177
2013-9-26,69,52,34,48,39,32,100,67,24,30.14,30.11,30.04,10,10,3,7,2,,0.00,0,,157
2013-9-27,72,60,47,54,49,43,100,75,38,30.20,30.16,30.12,10,10,7,16,6,22,0.00,0,,169
2013-9-28,72,62,52,55,53,51,95,73,51,30.13,30.01,29.79,10,10,10,20,11,30,0.00,1,Rain,162
2013-9-29,65,56,48,60,50,46,97,81,49,30.00,29.94,29.81,10,10,3,16,9,25,0.22,2,Rain,244
2013-9-30,65,56,47,55,49,43,99,80,44,29.99,29.91,29.83,10,10,7,18,8,28,0.00,0,,183